Weather History for Custer, SD

Change the Weather History Date:

Thursday, May 29, 2014

  Actual Average Record
Temperature  
Mean Temperature 69 °F 52 °F  
Max Temperature 81 °F 64 °F 88 °F (2003)
Min Temperature 56 °F 40 °F 20 °F (1947)
Degree Days  
Heating Degree Days 0 13  
Month to date heating degree days 465 493  
Since 1 July heating degree days 8146 8143  
Cooling Degree Days 4 0  
Month to date cooling degree days 4 0  
Year to date cooling degree days 4 0  
Growing Degree Days 20 (Base 50)    
Moisture  
Dew Point 49 °F    
Average Humidity 47    
Maximum Humidity 63    
Minimum Humidity 30    
Precipitation  
Precipitation 0.01 in 0.12 in 1.35 in (1982)
Month to date precipitation 2.60 2.88  
Year to date precipitation 7.20 6.87  
Sea Level Pressure  
Sea Level Pressure 29.89 in    
Wind  
Wind Speed 7 mph (South)    
Max Wind Speed 18 mph    
Max Gust Speed 28 mph    
Visibility 10 miles    
Events Rain , Thunderstorm    
T = Trace of Precipitation, MM = Missing Value Source: NWS Daily Summary

Daily Weather History Graph

Daily Weather History Graph

Search for Another Location

Airport:

Trip Planner

Search our weather history database for the weather conditions in past years. The results will help you decide how hot, cold, wet, or windy it might be!

Date:

Astronomy

May. 29, 2014 Rise Set
Actual Time 5:17 AM MDT 8:27 PM MDT
Civil Twilight 4:42 AM MDT 9:01 PM MDT
Nautical Twilight 3:57 AM MDT 9:46 PM MDT
Astronomical Twilight 3:03 AM MDT 10:41 PM MDT
Moon 6:14 AM MDT 9:17 PM MDT
Length of Visible Light 16h 19m
Length of Day
15h 09m
New Moon, 1% of the Moon is Illuminated
May 29
New Moon
Jun 5
First Quarter
Jun 12
Full
Jun 19
Last Quarter
Jun 27
New

Hourly Weather History & Observations

Time (MDT) Temp. Dew Point Humidity Pressure Visibility Wind Dir Wind Speed Gust Speed Precip Events Conditions
12:53 AM 64.0 °F 46.0 °F 52% 29.87 in 10.0 mi South 5.8 mph - N/A   Clear
2:53 AM 61.0 °F 46.0 °F 58% 29.88 in 10.0 mi Variable 3.5 mph - N/A   Clear
3:53 AM 60.1 °F 46.0 °F 60% 29.88 in 10.0 mi WSW 3.5 mph - N/A   Clear
4:53 AM 59.0 °F 45.0 °F 60% 29.87 in 10.0 mi Calm Calm - N/A   Clear
5:53 AM 59.0 °F 46.0 °F 62% 29.87 in 10.0 mi Calm Calm - N/A   Clear
6:53 AM 63.0 °F 46.9 °F 56% 29.86 in 10.0 mi SSW 4.6 mph - N/A   Clear
7:53 AM 68.0 °F 46.9 °F 47% 29.86 in 10.0 mi Variable 4.6 mph - N/A   Clear
8:53 AM 72.0 °F 46.0 °F 40% 29.85 in 10.0 mi SSW 5.8 mph - N/A   Clear
9:53 AM 75.9 °F 46.0 °F 35% 29.83 in 10.0 mi SSW 9.2 mph 19.6 mph N/A   Clear
10:53 AM 78.1 °F 46.0 °F 32% 29.84 in 10.0 mi South 10.4 mph 21.9 mph N/A   Clear
11:53 AM 79.0 °F 48.0 °F 34% 29.84 in 10.0 mi SSW 8.1 mph 26.5 mph N/A   Clear
12:53 PM 80.1 °F 48.0 °F 32% 29.83 in 10.0 mi South 17.3 mph 26.5 mph N/A   Clear
1:53 PM 80.1 °F 48.9 °F 34% 29.84 in 10.0 mi South 10.4 mph 24.2 mph N/A   Clear
2:53 PM 81.0 °F 48.0 °F 31% 29.83 in 10.0 mi SSE 12.7 mph 23.0 mph N/A   Clear
4:53 PM 81.0 °F 46.9 °F 30% 29.81 in 10.0 mi South 12.7 mph 20.7 mph N/A   Partly Cloudy
5:53 PM 78.1 °F 45.0 °F 31% 29.81 in 10.0 mi SSE 6.9 mph - N/A   Clear
6:53 PM 75.0 °F 51.1 °F 43% 29.83 in 10.0 mi SE 4.6 mph - N/A   Clear
7:53 PM 70.0 °F 53.1 °F 55% 29.86 in 10.0 mi West 6.9 mph - N/A   Clear
8:53 PM 66.0 °F 53.1 °F 63% 29.86 in 10.0 mi NNE 8.1 mph - N/A   Partly Cloudy
9:53 PM 64.0 °F 52.0 °F 65% 29.88 in 10.0 mi NE 8.1 mph - N/A   Partly Cloudy
11:16 PM 63.0 °F 53.1 °F 70% 30.12 in 10.0 mi NNE 3.5 mph - N/A Thunderstorm Mostly Cloudy
11:25 PM 62.1 °F 54.0 °F 75% 30.13 in 10.0 mi Calm Calm - N/A Thunderstorm Thunderstorm
11:48 PM 59.0 °F 55.4 °F 88% 30.13 in 10.0 mi NNW 3.5 mph - 0.00 in Rain Light Rain
11:53 PM 59.0 °F 55.9 °F 90% 29.93 in 10.0 mi Calm Calm - 0.00 in Rain Light Rain